Tracking 19709 objects as of 20-Jun-2019
HD Live streaming from Space Station
objects crossing your sky now

FENGYUN 1C DEB

Track FENGYUN 1C DEB now!
10-day predictions


NORAD ID: 30341
Int'l Code: 1999-025ABC
Perigee: 818.3 km
Apogee: 912.5 km
Inclination: 99.2 °
Period: 102.1 minutes
Semi major axis: 7236 km
RCS: 0.0444 m2 (small)
Launch date: May 10, 1999
Source: People's Republic of China (PRC)
Launch site: Taiyaun Space Center, China (TSC)

Note: This is SATELLITE DEBRIS
aabbcc
Your satellite tracking list
Your tracking list is empty




NASA's NSSDC Master Catalog

Two Line Element Set (TLE):
1 30341U 99025ABC 19170.35834006  .00000965  00000-0  55951-3 0  9991
2 30341  99.2232 294.7314 0065101 262.8067 115.3442 14.10327047635726
Source of the keplerian elements: AFSPC